Radiation Dose at Monitoring Post of Fukushima Daini Nuclear Power Station
Date,Time,MP-1(microSv/h),MP-2(microSv/h),MP-3(microSv/h),MP-4(microSv/h),MP-5(microSv/h),MP-6(microSv/h),MP-7(microSv/h),Wind Direction,Wind Velocity(m/s),Rain
2016/05/13,00:00,0.440,0.255,0.456,0.405,0.386,0.206,0.177,south-southwest,11.0,No
2016/05/13,00:10,0.438,0.254,0.458,0.403,0.386,0.205,0.177,south-southwest,11.6,No
2016/05/13,00:20,0.438,0.255,0.457,0.405,0.384,0.205,0.178,south-southwest,11.5,No
2016/05/13,00:30,0.436,0.254,0.458,0.403,0.388,0.206,0.177,south-southwest,11.9,No
2016/05/13,00:40,0.439,0.253,0.456,0.406,0.386,0.206,0.179,south-southwest,11.8,No
2016/05/13,00:50,0.439,0.255,0.456,0.402,0.389,0.206,0.177,south-southwest,11.6,No
2016/05/13,01:00,0.436,0.254,0.456,0.405,0.384,0.207,0.177,south-southwest,10.4,No
2016/05/13,01:10,0.439,0.255,0.457,0.404,0.388,0.207,0.177,south-southwest,10.7,No
2016/05/13,01:20,0.438,0.255,0.457,0.405,0.386,0.206,0.177,south-southwest,11.1,No
2016/05/13,01:30,0.440,0.253,0.458,0.404,0.385,0.207,0.177,south-southwest,11.5,No
2016/05/13,01:40,0.438,0.255,0.457,0.404,0.387,0.205,0.178,south-southwest,11.5,No
2016/05/13,01:50,0.438,0.255,0.456,0.404,0.385,0.205,0.178,south-southwest,10.6,No
2016/05/13,02:00,0.437,0.255,0.457,0.402,0.387,0.205,0.178,south-southwest,9.0,No
2016/05/13,02:10,0.439,0.256,0.456,0.406,0.386,0.206,0.178,south-southwest,7.5,No
2016/05/13,02:20,0.438,0.253,0.459,0.404,0.388,0.206,0.179,south,8.4,No
2016/05/13,02:30,0.442,0.256,0.456,0.406,0.385,0.206,0.178,south-southwest,8.3,No
2016/05/13,02:40,0.438,0.254,0.460,0.402,0.387,0.207,0.178,south-southwest,6.5,No
2016/05/13,02:50,0.437,0.255,0.455,0.406,0.386,0.206,0.177,south-southwest,6.7,No
2016/05/13,03:00,0.438,0.255,0.460,0.404,0.388,0.206,0.178,south-southwest,7.6,No
2016/05/13,03:10,0.438,0.253,0.457,0.406,0.387,0.205,0.177,south-southwest,8.6,No
2016/05/13,03:20,0.439,0.255,0.460,0.404,0.386,0.206,0.177,south,8.6,No
2016/05/13,03:30,0.437,0.253,0.456,0.406,0.389,0.206,0.178,south,8.2,No
2016/05/13,03:40,0.438,0.255,0.459,0.405,0.385,0.206,0.178,south-southwest,9.3,No
2016/05/13,03:50,0.437,0.255,0.457,0.403,0.388,0.206,0.178,south,8.8,No
2016/05/13,04:00,0.439,0.253,0.459,0.407,0.386,0.205,0.178,south-southwest,8.3,No
2016/05/13,04:10,0.437,0.256,0.458,0.404,0.386,0.204,0.178,south-southwest,7.5,No
2016/05/13,04:20,0.440,0.255,0.460,0.408,0.386,0.207,0.178,south-southwest,6.1,No
2016/05/13,04:30,0.437,0.255,0.459,0.405,0.385,0.206,0.178,south-southwest,5.0,No
2016/05/13,04:40,0.441,0.256,0.456,0.406,0.387,0.206,0.177,south-southwest,3.8,No
2016/05/13,04:50,0.438,0.253,0.459,0.404,0.385,0.206,0.178,south-southwest,4.3,No
2016/05/13,05:00,0.440,0.256,0.456,0.405,0.388,0.205,0.177,south,5.7,No
2016/05/13,05:10,0.438,0.254,0.461,0.406,0.386,0.207,0.179,south,8.0,No
2016/05/13,05:20,0.438,0.254,0.456,0.404,0.388,0.206,0.179,south,8.7,No
2016/05/13,05:30,0.440,0.255,0.462,0.407,0.387,0.206,0.179,south-southwest,7.7,No
2016/05/13,05:40,0.438,0.255,0.456,0.403,0.385,0.205,0.178,south-southwest,6.9,No
2016/05/13,05:50,0.441,0.257,0.460,0.407,0.387,0.206,0.178,south-southwest,8.3,No
2016/05/13,06:00,0.438,0.254,0.456,0.403,0.386,0.206,0.179,south-southwest,9.8,No
2016/05/13,06:10,0.440,0.255,0.459,0.406,0.388,0.206,0.177,south-southwest,10.0,No
2016/05/13,06:20,0.434,0.253,0.458,0.404,0.385,0.207,0.177,south-southwest,10.4,No
2016/05/13,06:30,0.441,0.255,0.458,0.407,0.390,0.206,0.178,south-southwest,10.6,No
2016/05/13,06:40,0.437,0.252,0.455,0.403,0.385,0.207,0.178,south-southwest,9.6,No
2016/05/13,06:50,0.440,0.255,0.459,0.407,0.389,0.206,0.178,south-southwest,9.7,No
2016/05/13,07:00,0.436,0.253,0.453,0.402,0.386,0.206,0.176,south-southwest,7.8,No
2016/05/13,07:10,0.438,0.252,0.453,0.404,0.387,0.206,0.175,south,8.4,No
2016/05/13,07:20,0.439,0.253,0.457,0.405,0.387,0.206,0.178,south,9.4,No
2016/05/13,07:30,0.435,0.255,0.455,0.400,0.386,0.206,0.176,south,9.9,No
2016/05/13,07:40,0.440,0.253,0.450,0.401,0.388,0.206,0.177,south,8.7,No
2016/05/13,07:50,0.436,0.252,0.449,0.405,0.383,0.205,0.176,south,10.1,No
2016/05/13,08:00,0.439,0.255,0.459,0.402,0.388,0.205,0.178,south-southwest,11.6,No
2016/05/13,08:10,0.439,0.255,0.457,0.400,0.385,0.206,0.176,south-southwest,10.4,No
2016/05/13,08:20,0.433,0.253,0.455,0.399,0.383,0.205,0.176,south-southwest,10.5,No
2016/05/13,08:30,0.432,0.251,0.460,0.402,0.387,0.205,0.177,south,12.4,No
2016/05/13,08:40,0.437,0.253,0.457,0.405,0.387,0.205,0.178,south,11.0,No
2016/05/13,08:50,0.439,0.254,0.456,0.402,0.385,0.207,0.177,south,12.6,No
2016/05/13,09:00,0.437,0.255,0.463,0.402,0.384,0.205,0.176,south,12.9,No
2016/05/13,09:10,0.434,0.253,0.455,0.399,0.387,0.207,0.178,south,13.5,No
2016/05/13,09:20,0.434,0.252,0.457,0.403,0.387,0.206,0.177,south,13.4,No
2016/05/13,09:30,0.440,0.254,0.459,0.405,0.383,0.206,0.177,south,13.1,No
2016/05/13,09:40,0.439,0.254,0.455,0.405,0.389,0.205,0.178,south,14.4,No
2016/05/13,09:50,0.436,0.253,0.459,0.402,0.389,0.206,0.178,south,14.5,No
2016/05/13,10:00,0.434,0.253,0.460,0.401,0.384,0.207,0.176,south,16.0,No
2016/05/13,10:10,0.436,0.256,0.456,0.400,0.384,0.206,0.177,south,14.4,No
2016/05/13,10:20,0.439,0.254,0.453,0.405,0.390,0.206,0.178,south,16.8,No
2016/05/13,10:30,0.439,0.253,0.456,0.408,0.388,0.206,0.177,south,15.1,No
2016/05/13,10:40,0.437,0.253,0.461,0.406,0.383,0.206,0.179,south,16.6,No
2016/05/13,10:50,0.435,0.254,0.457,0.402,0.388,0.205,0.179,south,15.7,No
2016/05/13,11:00,0.435,0.257,0.454,0.403,0.389,0.206,0.177,south,14.8,No
2016/05/13,11:10,0.441,0.253,0.453,0.407,0.387,0.207,0.177,south,15.1,No
2016/05/13,11:20,0.439,0.254,0.454,0.407,0.385,0.206,0.179,south,15.1,No
2016/05/13,11:30,0.436,0.256,0.461,0.402,0.390,0.206,0.178,south,15.4,No
2016/05/13,11:40,0.435,0.256,0.460,0.401,0.388,0.206,0.178,south,16.2,No
2016/05/13,11:50,0.434,0.253,0.457,0.407,0.385,0.205,0.179,south,13.7,No
2016/05/13,12:00,0.441,0.255,0.455,0.411,0.385,0.206,0.178,south,14.8,No
2016/05/13,12:10,0.441,0.256,0.453,0.406,0.391,0.207,0.178,south,13.4,No
2016/05/13,12:20,0.438,0.255,0.456,0.403,0.389,0.208,0.180,south,14.3,No
2016/05/13,12:30,0.436,0.253,0.454,0.403,0.386,0.206,0.179,south,15.3,No
2016/05/13,12:40,0.441,0.254,0.454,0.403,0.384,0.205,0.178,south,13.2,No
2016/05/13,12:50,0.445,0.257,0.455,0.408,0.387,0.206,0.180,south,14.9,No
2016/05/13,13:00,0.440,0.256,0.455,0.407,0.390,0.206,0.178,south,15.4,No
2016/05/13,13:10,0.436,0.253,0.462,0.405,0.390,0.206,0.177,south,14.1,No
2016/05/13,13:20,0.441,0.253,0.461,0.403,0.385,0.207,0.179,south,16.3,No
2016/05/13,13:30,0.442,0.256,0.460,0.402,0.383,0.206,0.179,south,14.6,No
2016/05/13,13:40,0.438,0.255,0.456,0.410,0.388,0.207,0.177,south,14.5,No
2016/05/13,13:50,0.438,0.253,0.455,0.409,0.391,0.206,0.180,south,14.6,No
2016/05/13,14:00,0.445,0.257,0.462,0.406,0.389,0.207,0.179,south,16.4,No
2016/05/13,14:10,0.440,0.257,0.462,0.411,0.386,0.206,0.179,south,14.0,No
2016/05/13,14:20,0.436,0.254,0.461,0.409,0.392,0.207,0.179,south,13.5,No
2016/05/13,14:30,0.442,0.254,0.458,0.404,0.390,0.206,0.178,south,14.0,No
2016/05/13,14:40,0.441,0.256,0.455,0.402,0.385,0.207,0.178,south,13.9,No
2016/05/13,14:50,0.440,0.255,0.460,0.410,0.384,0.207,0.179,south,12.9,No
2016/05/13,15:00,0.441,0.253,0.464,0.408,0.391,0.206,0.178,south,13.3,No
2016/05/13,15:10,0.442,0.257,0.460,0.406,0.391,0.208,0.180,south,13.2,No
2016/05/13,15:20,0.438,0.256,0.455,0.412,0.387,0.207,0.180,south,13.3,No
2016/05/13,15:30,0.441,0.254,0.464,0.407,0.388,0.205,0.178,south,12.9,No
2016/05/13,15:40,0.442,0.257,0.464,0.407,0.393,0.207,0.180,south,13.4,No
2016/05/13,15:50,0.439,0.256,0.457,0.411,0.389,0.208,0.179,south,13.6,No
2016/05/13,16:00,0.441,0.255,0.463,0.405,0.384,0.207,0.180,south,13.1,No
2016/05/13,16:10,0.441,0.259,0.463,0.409,0.386,0.206,0.178,south,13.1,No
2016/05/13,16:20,0.437,0.256,0.459,0.409,0.393,0.207,0.180,south,12.9,No
2016/05/13,16:30,0.442,0.258,0.463,0.407,0.389,0.207,0.179,south,12.1,No
2016/05/13,16:40,0.442,0.257,0.460,0.410,0.387,0.206,0.180,south,11.7,No
2016/05/13,16:50,0.438,0.255,0.461,0.408,0.385,0.206,0.178,south,11.0,No
2016/05/13,17:00,0.442,0.259,0.462,0.410,0.392,0.207,0.179,south,11.9,No
2016/05/13,17:10,0.442,0.255,0.457,0.410,0.389,0.207,0.180,south,11.7,No
2016/05/13,17:20,0.439,0.257,0.464,0.408,0.387,0.208,0.178,south,11.0,No
2016/05/13,17:30,0.444,0.257,0.461,0.411,0.389,0.206,0.180,south,10.8,No
2016/05/13,17:40,0.440,0.257,0.459,0.406,0.392,0.207,0.179,south,9.3,No
2016/05/13,17:50,0.441,0.258,0.463,0.412,0.388,0.207,0.180,south,8.3,No
2016/05/13,18:00,0.443,0.256,0.460,0.407,0.394,0.208,0.179,south,8.3,No
2016/05/13,18:10,0.440,0.257,0.465,0.411,0.390,0.208,0.180,south,8.3,No
2016/05/13,18:20,0.443,0.256,0.461,0.410,0.391,0.208,0.179,south,8.4,No
2016/05/13,18:30,0.438,0.257,0.462,0.406,0.391,0.208,0.180,south,8.3,No
2016/05/13,18:40,0.443,0.257,0.461,0.412,0.389,0.207,0.179,south,8.7,No
2016/05/13,18:50,0.440,0.258,0.459,0.408,0.391,0.207,0.180,south,9.5,No
2016/05/13,19:00,0.442,0.256,0.465,0.411,0.388,0.207,0.179,south-southwest,9.1,No
2016/05/13,19:10,0.440,0.256,0.460,0.408,0.393,0.208,0.179,south-southwest,7.8,No
2016/05/13,19:20,0.440,0.255,0.464,0.412,0.388,0.206,0.179,south-southwest,7.5,No
2016/05/13,19:30,0.444,0.257,0.460,0.407,0.393,0.207,0.180,south-southwest,7.4,No
2016/05/13,19:40,0.439,0.256,0.463,0.409,0.387,0.207,0.180,south-southwest,7.0,No
2016/05/13,19:50,0.443,0.256,0.461,0.409,0.390,0.208,0.180,south-southwest,7.8,No
2016/05/13,20:00,0.439,0.256,0.462,0.408,0.390,0.207,0.180,south-southwest,7.8,No
2016/05/13,20:10,0.444,0.256,0.463,0.410,0.390,0.209,0.180,south-southwest,7.6,No
2016/05/13,20:20,0.439,0.256,0.460,0.406,0.392,0.206,0.178,south-southwest,6.6,No
2016/05/13,20:30,0.443,0.259,0.463,0.411,0.388,0.208,0.179,south-southwest,5.2,No
2016/05/13,20:40,0.440,0.258,0.459,0.406,0.389,0.207,0.180,south-southwest,3.3,No
2016/05/13,20:50,0.441,0.257,0.463,0.412,0.388,0.208,0.179,south-southwest,2.7,No
2016/05/13,21:00,0.442,0.258,0.458,0.408,0.392,0.208,0.181,south-southwest,0.9,No
2016/05/13,21:10,0.439,0.257,0.465,0.411,0.387,0.208,0.179,-,CALM,No
2016/05/13,21:20,0.444,0.258,0.461,0.411,0.393,0.208,0.180,-,CALM,No
2016/05/13,21:30,0.441,0.256,0.465,0.410,0.388,0.209,0.180,-,CALM,No
2016/05/13,21:40,0.444,0.257,0.462,0.412,0.393,0.207,0.182,-,CALM,No
2016/05/13,21:50,0.440,0.258,0.461,0.410,0.390,0.208,0.180,-,CALM,No
2016/05/13,22:00,0.443,0.257,0.464,0.410,0.393,0.209,0.181,north-northwest,1.3,No
2016/05/13,22:10,0.440,0.257,0.460,0.409,0.390,0.208,0.180,north,2.6,No
2016/05/13,22:20,0.444,0.257,0.464,0.412,0.392,0.208,0.180,north,3.5,No
2016/05/13,22:30,0.439,0.259,0.462,0.407,0.389,0.209,0.181,north,3.3,No
2016/05/13,22:40,0.443,0.258,0.463,0.412,0.391,0.208,0.181,north,3.8,No
2016/05/13,22:50,0.440,0.258,0.461,0.407,0.390,0.210,0.181,north,5.3,No
2016/05/13,23:00,0.444,0.257,0.465,0.414,0.392,0.208,0.181,north,5.0,No
2016/05/13,23:10,0.442,0.257,0.460,0.409,0.390,0.209,0.180,north,5.0,No
2016/05/13,23:20,0.440,0.259,0.465,0.412,0.391,0.209,0.181,north,4.7,No
2016/05/13,23:30,0.442,0.258,0.460,0.410,0.390,0.210,0.182,north,4.5,No
2016/05/13,23:40,0.440,0.257,0.465,0.413,0.390,0.209,0.181,north,4.2,No
2016/05/13,23:50,0.441,0.258,0.461,0.409,0.391,0.209,0.180,north,4.7,No
